TimePDT,TemperatureF,Dew PointF,Humidity,Sea Level PressureIn,VisibilityMPH,Wind Direction,Wind SpeedMPH,Gust SpeedMPH,PrecipitationIn,Events,Conditions,WindDirDegrees,DateUTC
12:53 AM,70.0,44.1,39,29.78,10.0,Variable,3.5,-,N/A,,Clear,0,2013-08-25 07:53:00
1:53 AM,68.0,44.1,42,29.79,10.0,NE,4.6,-,N/A,,Clear,40,2013-08-25 08:53:00
2:53 AM,68.0,44.1,42,29.81,10.0,NNW,3.5,-,N/A,,Clear,340,2013-08-25 09:53:00
3:53 AM,66.9,44.1,44,29.81,10.0,NNW,5.8,-,N/A,,Clear,330,2013-08-25 10:53:00
4:53 AM,66.0,42.1,42,29.82,10.0,North,3.5,-,N/A,,Clear,360,2013-08-25 11:53:00
5:53 AM,66.9,41.0,39,29.84,10.0,NW,9.2,-,N/A,,Clear,320,2013-08-25 12:53:00
6:53 AM,57.9,48.9,72,29.86,10.0,North,5.8,-,N/A,,Clear,350,2013-08-25 13:53:00
7:53 AM,60.1,51.1,72,29.88,10.0,NE,5.8,-,N/A,,Clear,40,2013-08-25 14:53:00
8:53 AM,63.0,51.1,65,29.88,10.0,NNE,6.9,-,0.00,,Overcast,20,2013-08-25 15:53:00
9:53 AM,66.0,50.0,56,29.88,10.0,ENE,5.8,-,0.00,,Partly Cloudy,60,2013-08-25 16:53:00
10:53 AM,70.0,48.9,47,29.88,10.0,ENE,3.5,-,0.01,,Mostly Cloudy,60,2013-08-25 17:53:00
11:53 AM,73.9,46.9,38,29.87,10.0,Variable,3.5,-,N/A,,Overcast,0,2013-08-25 18:53:00
12:53 PM,75.9,44.1,32,29.85,10.0,Variable,3.5,-,N/A,,Mostly Cloudy,0,2013-08-25 19:53:00
1:53 PM,79.0,43.0,28,29.83,10.0,Calm,Calm,-,N/A,,Clear,0,2013-08-25 20:53:00
2:53 PM,81.0,39.9,23,29.81,10.0,WSW,4.6,-,N/A,,Clear,250,2013-08-25 21:53:00
3:53 PM,82.0,41.0,23,29.79,10.0,SW,9.2,-,N/A,,Clear,230,2013-08-25 22:53:00
4:53 PM,81.0,42.1,25,29.77,10.0,WSW,9.2,-,N/A,,Clear,240,2013-08-25 23:53:00
5:53 PM,80.1,42.1,26,29.75,10.0,SSW,3.5,-,N/A,,Clear,210,2013-08-26 00:53:00
6:53 PM,77.0,44.1,31,29.75,10.0,SW,10.4,-,N/A,,Clear,230,2013-08-26 01:53:00
7:53 PM,63.0,57.9,84,29.90,9.0,SSW,23.0,41.4,0.07,Rain,Light Rain,200,2013-08-26 02:53:00
8:01 PM,62.6,57.2,82,29.90,7.0,SSW,17.3,28.8,0.02,Rain-Thunderstorm,Thunderstorms and Rain,200,2013-08-26 03:01:00
8:20 PM,62.6,57.2,82,29.82,10.0,NW,5.8,26.5,0.08,Rain,Light Rain,310,2013-08-26 03:20:00
8:53 PM,63.0,57.9,84,29.82,10.0,SW,12.7,-,0.08,,Partly Cloudy,230,2013-08-26 03:53:00
9:53 PM,63.0,57.9,84,29.81,10.0,SSW,9.2,-,N/A,,Clear,210,2013-08-26 04:53:00
10:53 PM,61.0,57.9,90,29.83,10.0,SSE,6.9,-,N/A,,Clear,160,2013-08-26 05:53:00
11:53 PM,59.0,57.0,93,29.84,10.0,South,5.8,-,N/A,,Clear,190,2013-08-26 06:53:00